• In Österreich
  • Länderverzeichnis
  • Für 7 Tage
  • Wassertemperatur
  • Satellitenkarten
  • Wetterkarte
  • News
  • Widgets
  • user-avatar
    Anmelden

    Stündliche Wetter Leicester

    Heute, 18 September, Dienstag

    Zeit Temperatur Niederschläge Wind Luftdruck Luftfeuchtigkeit
    00:00 +16°C° 0 mm 5 m/S 747 mmHg 72%
    01:00 +16°C° 0 mm 5 m/S 746 mmHg 76%
    02:00 +16°C° 0 mm 6 m/S 745 mmHg 80%
    03:00 +16°C° 0 mm 7 m/S 745 mmHg 84%
    04:00 +17°C° 0 mm 8 m/S 744 mmHg 82%
    05:00 +18°C° 0 mm 8 m/S 744 mmHg 81%
    06:00 +18°C° 0 mm 8 m/S 744 mmHg 79%
    07:00 +18°C° 0 mm 8 m/S 744 mmHg 78%
    08:00 +18°C° 0 mm 9 m/S 745 mmHg 77%
    09:00 +18°C° 0 mm 9 m/S 746 mmHg 77%
    10:00 +18°C° 0 mm 9 m/S 747 mmHg 74%
    11:00 +19°C° 0 mm 9 m/S 747 mmHg 71%
    12:00 +19°C° 0 mm 9 m/S 748 mmHg 68%
    13:00 +18°C° 0 mm 9 m/S 748 mmHg 70%
    14:00 +18°C° 0 mm 8 m/S 749 mmHg 71%
    15:00 +18°C° 0 mm 8 m/S 749 mmHg 73%
    16:00 +18°C° 0 mm 7 m/S 749 mmHg 74%
    17:00 +18°C° 0 mm 7 m/S 749 mmHg 75%
    18:00 +19°C° 0 mm 6 m/S 749 mmHg 77%
    19:00 +18°C° 0.1 mm 7 m/S 750 mmHg 78%
    20:00 +17°C° 0.1 mm 7 m/S 750 mmHg 80%
    21:00 +17°C° 0.1 mm 7 m/S 750 mmHg 82%
    22:00 +17°C° 0.2 mm 7 m/S 750 mmHg 83%
    23:00 +17°C° 0.2 mm 7 m/S 750 mmHg 83%

    Morgen, 19 September, Mittwoch

    Zeit Temperatur Niederschläge Wind Luftdruck Luftfeuchtigkeit
    00:00 +16°C° 0.2 mm 7 m/S 751 mmHg 83%
    01:00 +16°C° 0.1 mm 6 m/S 751 mmHg 85%
    02:00 +15°C° 0.1 mm 5 m/S 751 mmHg 87%
    03:00 +15°C° 0.1 mm 5 m/S 751 mmHg 89%
    04:00 +15°C° 0 mm 5 m/S 751 mmHg 90%
    05:00 +14°C° 0 mm 5 m/S 750 mmHg 91%
    06:00 +14°C° 0 mm 5 m/S 750 mmHg 92%
    07:00 +15°C° 0 mm 7 m/S 750 mmHg 86%
    08:00 +17°C° 0 mm 8 m/S 750 mmHg 79%
    09:00 +18°C° 0 mm 10 m/S 750 mmHg 73%
    10:00 +19°C° 0 mm 10 m/S 749 mmHg 68%
    11:00 +19°C° 0 mm 11 m/S 749 mmHg 64%
    12:00 +21°C° 0 mm 11 m/S 749 mmHg 60%
    13:00 +21°C° 0.1 mm 11 m/S 749 mmHg 61%
    14:00 +21°C° 0.1 mm 10 m/S 749 mmHg 63%
    15:00 +21°C° 0.1 mm 10 m/S 749 mmHg 64%
    16:00 +18°C° 0.3 mm 9 m/S 750 mmHg 68%
    17:00 +17°C° 0.3 mm 8 m/S 750 mmHg 73%
    18:00 +16°C° 0.3 mm 7 m/S 751 mmHg 77%
    19:00 +15°C° 0 mm 7 m/S 751 mmHg 77%
    20:00 +14°C° 0 mm 6 m/S 752 mmHg 77%
    21:00 +13°C° 0 mm 5 m/S 752 mmHg 77%
    22:00 +13°C° 0 mm 5 m/S 752 mmHg 78%
    23:00 +12°C° 0 mm 5 m/S 752 mmHg 79%

    übermorgen, 20 September, Donnerstag

    Zeit Temperatur Niederschläge Wind Luftdruck Luftfeuchtigkeit
    00:00 +12°C° 0 mm 4 m/S 753 mmHg 79%
    01:00 +12°C° 0.8 mm 3 m/S 752 mmHg 82%
    02:00 +12°C° 0.8 mm 3 m/S 752 mmHg 84%
    03:00 +13°C° 0.8 mm 2 m/S 751 mmHg 86%
    04:00 +12°C° 2.2 mm 2 m/S 751 mmHg 87%
    05:00 +12°C° 2.2 mm 2 m/S 751 mmHg 89%
    06:00 +12°C° 2.2 mm 2 m/S 751 mmHg 90%
    07:00 +12°C° 0.9 mm 2 m/S 751 mmHg 89%
    08:00 +12°C° 0.9 mm 2 m/S 751 mmHg 88%
    09:00 +12°C° 0.9 mm 1 m/S 751 mmHg 87%
    10:00 +12°C° 1.1 mm 2 m/S 750 mmHg 87%
    11:00 +12°C° 1.1 mm 2 m/S 750 mmHg 87%
    12:00 +13°C° 1.1 mm 2 m/S 749 mmHg 88%
    13:00 +12°C° 2.7 mm 3 m/S 749 mmHg 89%
    14:00 +12°C° 2.7 mm 3 m/S 748 mmHg 90%
    15:00 +12°C° 2.7 mm 3 m/S 747 mmHg 92%
    16:00 +12°C° 3.8 mm 4 m/S 746 mmHg 92%
    17:00 +12°C° 3.8 mm 4 m/S 745 mmHg 93%
    18:00 +12°C° 3.8 mm 4 m/S 744 mmHg 93%
    19:00 +12°C° 1.8 mm 4 m/S 744 mmHg 93%
    20:00 +12°C° 1.8 mm 5 m/S 743 mmHg 92%
    21:00 +12°C° 1.8 mm 5 m/S 743 mmHg 92%
    22:00 +10°C° 0.2 mm 6 m/S 744 mmHg 90%
    23:00 +9°C° 0.2 mm 6 m/S 744 mmHg 88%

    21 September, Freitag

    Zeit Temperatur Niederschläge Wind Luftdruck Luftfeuchtigkeit
    00:00 +8°C° 0.2 mm 6 m/S 745 mmHg 86%
    01:00 +8°C° 0 mm 5 m/S 746 mmHg 86%
    02:00 +7°C° 0 mm 5 m/S 746 mmHg 87%
    03:00 +7°C° 0 mm 4 m/S 747 mmHg 87%
    04:00 +7°C° 0 mm 5 m/S 748 mmHg 87%
    05:00 +7°C° 0 mm 5 m/S 748 mmHg 87%
    06:00 +6°C° 0 mm 5 m/S 749 mmHg 86%
    07:00 +7°C° 0 mm 6 m/S 750 mmHg 81%
    08:00 +9°C° 0 mm 6 m/S 750 mmHg 75%
    09:00 +10°C° 0 mm 7 m/S 750 mmHg 69%
    10:00 +10°C° 0 mm 8 m/S 751 mmHg 64%
    11:00 +11°C° 0 mm 8 m/S 751 mmHg 59%
    12:00 +12°C° 0 mm 8 m/S 752 mmHg 54%
    13:00 +12°C° 0.1 mm 8 m/S 752 mmHg 56%
    14:00 +12°C° 0.1 mm 8 m/S 753 mmHg 57%
    15:00 +12°C° 0.1 mm 8 m/S 753 mmHg 59%
    16:00 +11°C° 0 mm 7 m/S 754 mmHg 63%
    17:00 +10°C° 0 mm 6 m/S 755 mmHg 66%
    18:00 +11°C° 0 mm 4 m/S 755 mmHg 70%
    19:00 +10°C° 0 mm 4 m/S 756 mmHg 73%
    20:00 +10°C° 0 mm 4 m/S 757 mmHg 75%
    21:00 +8°C° 0 mm 4 m/S 757 mmHg 78%
    22:00 +8°C° 0 mm 4 m/S 758 mmHg 80%
    23:00 +8°C° 0 mm 4 m/S 758 mmHg 82%

    22 September, Samstag

    Zeit Temperatur Niederschläge Wind Luftdruck Luftfeuchtigkeit
    00:00 +7°C° 0 mm 4 m/S 758 mmHg 83%
    01:00 +7°C° 0 mm 4 m/S 758 mmHg 84%
    02:00 +7°C° 0 mm 4 m/S 759 mmHg 85%
    03:00 +8°C° 0 mm 3 m/S 759 mmHg 86%
    04:00 +8°C° 0 mm 3 m/S 759 mmHg 87%
    05:00 +8°C° 0 mm 3 m/S 759 mmHg 87%
    06:00 +7°C° 0 mm 3 m/S 759 mmHg 88%
    07:00 +9°C° 0 mm 3 m/S 759 mmHg 83%
    08:00 +10°C° 0 mm 3 m/S 760 mmHg 78%
    09:00 +11°C° 0 mm 3 m/S 760 mmHg 73%
    10:00 +12°C° 0 mm 3 m/S 760 mmHg 69%
    11:00 +13°C° 0 mm 3 m/S 760 mmHg 65%
    12:00 +14°C° 0 mm 3 m/S 760 mmHg 61%
    13:00 +13°C° 0.3 mm 3 m/S 759 mmHg 66%
    14:00 +13°C° 0.3 mm 3 m/S 759 mmHg 71%
    15:00 +12°C° 0.3 mm 3 m/S 759 mmHg 76%
    16:00 +12°C° 1.2 mm 3 m/S 758 mmHg 81%
    17:00 +11°C° 1.2 mm 4 m/S 757 mmHg 85%
    18:00 +10°C° 1.2 mm 4 m/S 756 mmHg 90%
    19:00 +9°C° 2.7 mm 5 m/S 755 mmHg 90%
    20:00 +10°C° 2.7 mm 6 m/S 754 mmHg 91%
    21:00 +10°C° 2.7 mm 8 m/S 753 mmHg 91%
    22:00 +11°C° 1 mm 7 m/S 752 mmHg 92%
    23:00 +13°C° 1 mm 6 m/S 750 mmHg 94%

    23 September, Sonntag

    Zeit Temperatur Niederschläge Wind Luftdruck Luftfeuchtigkeit
    00:00 +14°C° 1 mm 6 m/S 749 mmHg 95%
    01:00 +15°C° 0.1 mm 7 m/S 748 mmHg 94%
    02:00 +16°C° 0.1 mm 7 m/S 746 mmHg 92%
    03:00 +18°C° 0.1 mm 8 m/S 745 mmHg 91%
    04:00 +17°C° 0.1 mm 9 m/S 744 mmHg 90%
    05:00 +17°C° 0.1 mm 10 m/S 743 mmHg 88%
    06:00 +17°C° 0.1 mm 11 m/S 742 mmHg 86%
    07:00 +15°C° 0.3 mm 12 m/S 740 mmHg 82%
    08:00 +15°C° 0.3 mm 13 m/S 739 mmHg 77%
    09:00 +14°C° 0.3 mm 14 m/S 737 mmHg 72%
    10:00 +13°C° 0.2 mm 14 m/S 737 mmHg 71%
    11:00 +13°C° 0.2 mm 15 m/S 737 mmHg 71%
    12:00 +11°C° 0.2 mm 15 m/S 736 mmHg 71%
    13:00 +12°C° 0.1 mm 14 m/S 737 mmHg 70%
    14:00 +10°C° 0.1 mm 14 m/S 738 mmHg 70%
    15:00 +10°C° 0.1 mm 14 m/S 739 mmHg 70%
    16:00 +10°C° 0 mm 14 m/S 742 mmHg 66%
    17:00 +9°C° 0 mm 14 m/S 745 mmHg 61%
    18:00 +9°C° 0 mm 13 m/S 747 mmHg 57%
    19:00 +8°C° 0 mm 12 m/S 750 mmHg 57%
    20:00 +8°C° 0 mm 11 m/S 752 mmHg 57%
    21:00 +8°C° 0 mm 11 m/S 754 mmHg 57%
    22:00 +7°C° 0 mm 10 m/S 756 mmHg 57%
    23:00 +6°C° 0 mm 10 m/S 757 mmHg 57%
    Mehr zeigen